Regional Weather Roundup
Issued by NWS

Current Version | Previous Version | Text Only | Print | Product List | Glossary On
Versions: 1 2 3 4 5 6 7 8 9 10 11 12 13 14 15 16 17 18 19 20 21 22 23 24 25 26 27 28 29 30 31 32 33 34 35 36 37 38 39 40 41 42 43 44 45 46 47 48 49 50
000
ASUS46 KSEW 301210
RWRWA

WASHINGTON REGIONAL WEATHER ROUNDUP
NATIONAL WEATHER SERVICE SEATTLE WA
500 AM PDT FRI SEP 30 2022

NOTE:"FAIR" INDICATES FEW OR NO CLOUDS BELOW 12,000 FEET WITH NO
SIGNIFICANT WEATHER AND/OR OBSTRUCTIONS TO VISIBILITY.

WAZ507-509-555>559-301300-
SEATTLE, TACOMA, EVERETT, AND VICINITY

CITY           SKY/WX    TMP DP  RH WIND       PRES   REMARKS
EVERETT        CLOUDY    54  52  93 N5        30.24S
6HR MIN TEMP:  54; 6HR MAX TEMP:  55;

BOEING FIELD   MOCLDY    55  53  93 VRB5      30.23S
6HR MIN TEMP:  55; 6HR MAX TEMP:  60;

RENTON         PTCLDY    56  53  90 N12       30.22S
6HR MIN TEMP:  54; 6HR MAX TEMP:  60;

SEATAC AIRPORT MOCLDY    54  51  90 NE12      30.22S
6HR MIN TEMP:  54; 6HR MAX TEMP:  61;

JBLM-MCCHORD   CLOUDY    55  55 100 CALM      30.22S
6HR MIN TEMP:  50; 6HR MAX TEMP:  55;

PUYALLUP       DRZL/FOG  55  55 100 CALM      30.23S VSB 1
BREMERTON      CLOUDY    53  53 100 NE6       30.24S FOG
6HR MIN TEMP:  46; 6HR MAX TEMP:  53;

JBLM-FT LEWIS  CLOUDY    54  52  95 SE5       30.21S FOG
6HR MIN TEMP:  54; 6HR MAX TEMP:  57;

TACOMA NARROWS FOG       53  53 100 N3        30.24R VSB 1/4
6HR MIN TEMP:  53; 6HR MAX TEMP:  59;

$$

WAZ001-503-506-510-514-515-301300-
NORTH INTERIOR

CITY           SKY/WX    TMP DP  RH WIND       PRES   REMARKS
BELLINGHAM     PTCLDY    54  54 100 S3        30.22S
6HR MIN TEMP:  54; 6HR MAX TEMP:  57;

FRIDAY HARBOR  FOG      N/A N/A N/A CALM      30.23S VSB 1/2
EASTSOUND      FOG       52  52 100 CALM      30.22R VSB<1/4
PORT ANGELES   CLEAR     50  47  89 W5        30.24S
6HR MIN TEMP:  50; 6HR MAX TEMP:  54;

EDIZ HOOK      PTSUNNY   51  51 100 W7        30.24S
6HR MIN TEMP:  51; 6HR MAX TEMP:  54;

PORT TOWNSEND  FAIR      48  46  93 SE7       30.22S
NAS WHIDBEY    CLOUDY    52  52 100 S5        30.26S FOG
6HR MIN TEMP:  52; 6HR MAX TEMP:  54;

ARLINGTON      CLOUDY    55  52  89 CALM      30.24S
6HR MIN TEMP:  51; 6HR MAX TEMP:  55;

BURLINGTON     CLOUDY    54  54 100 SE3       30.23S
$$

WAZ020-022-039-040-504-511-512-301300-
SOUTHWEST INTERIOR

CITY           SKY/WX    TMP DP  RH WIND       PRES   REMARKS
SHELTON        FOG       53  53 100 CALM      30.21S VSB 1/4
6HR MIN TEMP:  53; 6HR MAX TEMP:  56;

OLYMPIA        FOG       53  53 100 CALM      30.23S VSB 3/4
6HR MIN TEMP:  48; 6HR MAX TEMP:  54;

CHEHALIS       NOT AVBL
KELSO          CLOUDY    56  54  93 NW5       30.22S
6HR MIN TEMP:  56; 6HR MAX TEMP:  58;

VANCOUVER      CLOUDY    58  52  80 NW5       30.21S
6HR MIN TEMP:  57; 6HR MAX TEMP:  60;

SCAPPOOSE, OR  CLOUDY    57  53  86 N3        30.19F
6HR MIN TEMP:  53; 6HR MAX TEMP:  60;

PORTLAND, OR   CLOUDY    59  53  80 N5        30.20S
6HR MIN TEMP:  58; 6HR MAX TEMP:  62;

$$

WAZ021-516-517-301300-
WASHINGTON COAST

CITY           SKY/WX    TMP DP  RH WIND       PRES   REMARKS
FORKS          CLOUDY    57  55  93 NW3       30.23S
6HR MIN TEMP:  57; 6HR MAX TEMP:  59;

HOQUIAM        CLOUDY    57  53  86 CALM      30.23S
6HR MIN TEMP:  57; 6HR MAX TEMP:  59;

ASTORIA, OR    CLOUDY    60  53  77 NW7       30.21S
6HR MIN TEMP:  58; 6HR MAX TEMP:  60;

$$

WAZ019-023-024-040-567>569-301300-
CASCADE MOUNTAINS AND COLUMBIA GORGE

CITY           SKY/WX    TMP DP  RH WIND       PRES   REMARKS
STAMPEDE PASS  FOG       47  45  93 SW6       30.23S VSB 1/4
6HR MIN TEMP:  46; 6HR MAX TEMP:  49;

TROUTDALE, OR  CLOUDY    59  53  80 CALM      30.19S
6HR MIN TEMP:  58; 6HR MAX TEMP:  63;

HOOD RIVER, OR SUNNY     46  45  93 S3        30.17S
THE DALLES, OR CLEAR     55  48  77 SE5       30.15R
6HR MIN TEMP:  54; 6HR MAX TEMP:  65;

$$

WAZ026-027-041>044-520-521-301300-
EAST SLOPES

CITY           SKY/WX    TMP DP  RH WIND       PRES   REMARKS
OMAK           CLEAR     48  43  82 NW5       30.13R
6HR MIN TEMP:  47; 6HR MAX TEMP:  59;

WENATCHEE      CLEAR     61  46  57 NW14      30.12R
6HR MIN TEMP:  60; 6HR MAX TEMP:  63;

ELLENSBURG     CLEAR     58  46  64 NW12      30.14S
6HR MIN TEMP:  58; 6HR MAX TEMP:  60;

YAKIMA         CLEAR     49  41  74 W5        30.13S
6HR MIN TEMP:  48; 6HR MAX TEMP:  63;

SUNNYSIDE ARPT MOSUNNY   50  48  93 N3        30.12S
6HR MIN TEMP:  47; 6HR MAX TEMP:  54;

YAKIMA TC      NOT AVBL
$$

WAZ028-034-035-301300-
COLUMBIA BASIN

CITY           SKY/WX    TMP DP  RH WIND       PRES   REMARKS
EPHRATA        MOCLDY    56  50  80 N6        30.11R
6HR MIN TEMP:  56; 6HR MAX TEMP:  63;

MOSES LAKE     CLOUDY    54  50  86 NE6       30.11S
6HR MIN TEMP:  53; 6HR MAX TEMP:  62;

PASCO          CLOUDY    62  50  64 CALM      30.11S
6HR MIN TEMP:  61; 6HR MAX TEMP:  65;

RICHLAND ARPT  CLOUDY    62  47  58 SW5       30.11S
6HR MIN TEMP:  60; 6HR MAX TEMP:  64;

HERMISTON, OR  CLOUDY    61  49  64 CALM      30.14R
6HR MIN TEMP:  60; 6HR MAX TEMP:  63;

$$

WAZ036>038-301300-
NORTHEAST WASHINGTON

CITY           SKY/WX    TMP DP  RH WIND       PRES   REMARKS
SPOKANE GEIGER CLOUDY    54  51  90 NE3       30.14S
6HR MIN TEMP:  53; 6HR MAX TEMP:  54;

SPOKANE FELTS  CLOUDY    54  51  90 CALM      30.16R
6HR MIN TEMP:  54; 6HR MAX TEMP:  56;

FAIRCHILD AFB  CLOUDY    53  53  99 E3        30.13S
6HR MIN TEMP:  53; 6HR MAX TEMP:  54; 6HR PCP: TRACE;

COEURDALENE,ID CLOUDY    51  50  96 E3        30.17R
6HR MIN TEMP:  51; 6HR MAX TEMP:  52;

DEER PARK      CLOUDY    53  51  93 NE3       30.16R
6HR MIN TEMP:  53; 6HR MAX TEMP:  54;

$$

WAZ029>033-301300-
SOUTHEAST WASHINGTON

CITY           SKY/WX    TMP DP  RH WIND       PRES   REMARKS
PULLMAN        CLOUDY    52  51  97 CALM      30.16S
6HR MIN TEMP:  52; 6HR MAX TEMP:  53; 6HR PCP:  0.02;

LEWISTON, ID   CLOUDY    57  55  93 CALM      30.13S
6HR MIN TEMP:  57; 6HR MAX TEMP:  58; 6HR PCP:  0.07;

WALLA WALLA    CLOUDY    58  50  75 S10       30.13S
6HR MIN TEMP:  58; 6HR MAX TEMP:  64; 6HR PCP:  0.06;

PENDLETON, OR  CLOUDY    61  47  59 SW9       30.14S
6HR MIN TEMP:  61; 6HR MAX TEMP:  64;

$$



USA.gov is the U.S. government's official web portal to all federal, state and local government web resources and services.